Regional Weather Roundup
Issued by NWS Sioux Falls, SD

Home | Current Version | Previous Version | Text Only | Print | Product List | Glossary Off
Versions: 1 2 3 4 5 6 7 8 9 10 11 12 13 14 15 16 17 18 19 20 21 22 23 24 25 26 27 28 29 30 31 32 33 34 35 36 37 38 39 40 41 42 43 44 45 46 47 48 49 50

833
ASUS43 KFSD 231302
RWRFSD

WEATHER ROUNDUP FOR SE SOUTH DAKOTA/SW MINNESOTA/NW IOWA
NATIONAL WEATHER SERVICE SIOUX FALLS SD
800 AM CDT SUN APR 23 2017

NOTE: "FAIR" INDICATES FEW OR NO CLOUDS BELOW 12,000 FEET WITH NO
SIGNIFICANT WEATHER AND OR OBSTRUCTIONS TO VISIBILITY.


SDZ038>040-050-052>070-231400-
SOUTHEAST SOUTH DAKOTA

CITY           SKY/WX    TMP DP  RH WIND       PRES   REMARKS
BROOKINGS      SUNNY     48  35  60 S7        30.07R
CHAMBERLAIN    NOT AVBL
HURON          CLOUDY    47  37  68 S7        30.02F
MADISON        FAIR      50  32  50 SW15      30.07R
MITCHELL       SUNNY     51  35  54 S12       30.05R
SIOUX FALLS    MOSUNNY   51  35  54 SW9       30.08S
WINNER         FAIR      49  32  52 SW18G25   29.99F
YANKTON        SUNNY     52  32  46 S7        30.09S
$$

MNZ071-072-080-081-089-090-097-098-231400-
SOUTHWEST MINNESOTA

CITY           SKY/WX    TMP DP  RH WIND       PRES   REMARKS
FAIRMONT       SUNNY     51  37  58 SW8       30.11S
JACKSON        SUNNY     50  32  50 SW10      30.11R
LUVERNE        SUNNY     43  34  70 CALM      30.10S
MARSHALL       SUNNY     40  37  89 NW6       30.10F
MONTEVIDEO     SUNNY     46  43  87 CALM      30.08F
PIPESTONE      SUNNY     46  34  61 SW6       30.07S
REDWOOD FALLS  SUNNY     44  38  79 VRB3      30.10R
TRACY          SUNNY     43  40  90 N3        30.10S
WINDOM         SUNNY     52  36  54 SW8       30.10R
WORTHINGTON    SUNNY     52  32  46 SW16      30.09F
$$

IAZ001>003-012>014-020>022-031-032-NEZ013-014-SDZ071-231400-
NORTHWEST IOWA

CITY           SKY/WX    TMP DP  RH WIND       PRES   REMARKS
CHEROKEE       SUNNY     38  38 100 CALM      30.13S
DENISON        SUNNY     41  37  87 CALM      30.16F
ESTHERVILLE    SUNNY     49  37  63 SW7       30.11R
LE MARS        SUNNY     45  37  76 SW5       30.13R
ORANGE CITY    SUNNY     46  36  66 SW6       30.11S
SHELDON        SUNNY     48  34  57 SW8       30.10R
SIOUX CITY     SUNNY     41  37  86 SE6       30.13F
SPENCER        SUNNY     48  36  63 SW9       30.12S
STORM LAKE     SUNNY     46  36  66 SW5       30.13S
$$

ABBREVIATIONS USED IN REMARKS
   TC - TEMPERATURE IN CELSIUS
  WCI - WIND CHILL INDEX
   HX - HEAT INDEX
  VSB - VISIBILITY





USA.gov is the U.S. government's official web portal to all federal, state and local government web resources and services.